Location: Unspecified
(0.0000°N, 0.0000°E)
Time: 18:59:34
(UTC+00:00)

Tiros 1 - Pass Details

Date: 21 November 2019
Orbit: 630 x 664 km, 48.4° (Epoch: 08 December)

Event Time Altitude Azimuth Distance (km) Brightness Sun altitude
Rises 21:23:56 0° 337° (NNW) 2,937 - -49.9°
Reaches altitude 10° 21:26:25 10° 346° (NNW) 2,036 - -50.4°
Maximum altitude 21:30:41 34° 51° (NE) 1,063 - -51.3°
Drops below altitude 10° 21:35:00 10° 116° (ESE) 2,062 - -52.2°
Sets 21:37:31 0° 125° (SE) 2,980 - -52.8°
